Terminal Aerodrome Forecast
Issued by NWS Indianapolis, IN

Home | Current Version | Previous Version | Text Only | Print | Product List | Glossary On
Versions: 1 2 3 4 5 6 7 8 9 10 11 12 13 14 15 16 17 18 19 20 21 22 23 24 25 26 27 28
511
FTUS43 KIND 080245 AAA
TAFIND
TAF AMD
KIND 080245Z 0803/0906 28009KT P6SM BKN100
     FM081100 28009KT P6SM SCT030 BKN060
     FM081700 28013G21KT P6SM SCT040
     FM082100 28013G21KT P6SM BKN040
     FM082300 29012G20KT P6SM BKN025
     FM090400 29010KT P6SM BKN015=

USA.gov is the U.S. government's official web portal to all federal, state and local government web resources and services.